Weather History for Bowling Green, KY

Change the Weather History Date:

Sunday, December 9, 2012

  Actual Average Record
Temperature  
Mean Temperature 61 °F 40 °F  
Max Temperature 67 °F 50 °F 71 °F (1952)
Min Temperature 55 °F 30 °F -10 °F (1917)
Degree Days  
Heating Degree Days 4 25  
Month to date heating degree days 68 213  
Since 1 July heating degree days 900 976  
Cooling Degree Days 0 0  
Month to date cooling degree days 3 0  
Year to date cooling degree days 1938 1491  
Growing Degree Days 10 (Base 50)    
Moisture  
Dew Point 57 °F    
Average Humidity 83    
Maximum Humidity 93    
Minimum Humidity 73    
Precipitation  
Precipitation 1.34 in 0.17 in 2.62 in (1961)
Month to date precipitation 2.23 1.46  
Year to date precipitation 37.76 46.55  
Snow  
Snow 0.00 in 0.00 in 0.20 in (1988)
Month to date snowfall 0.0 0.1  
Since 1 July snowfall 0.0 0.1  
Snow Depth 0.00 in    
Sea Level Pressure  
Sea Level Pressure 29.87 in    
Wind  
Wind Speed 8 mph (SSW)    
Max Wind Speed 22 mph    
Max Gust Speed 28 mph    
Visibility 6 miles    
Events Rain , Thunderstorm    
T = Trace of Precipitation, MM = Missing Value Source: NWS Daily Summary

Daily Weather History Graph

Daily Weather History Graph

Search for Another Location

Airport:

Trip Planner

Search our weather history database for the weather conditions in past years. The results will help you decide how hot, cold, wet, or windy it might be!

Date:

Astronomy

Dec. 09, 2012 Rise Set
Actual Time 6:47 AM CST 4:28 PM CST
Civil Twilight 6:18 AM CST 4:57 PM CST
Nautical Twilight 5:46 AM CST 5:30 PM CST
Astronomical Twilight 5:14 AM CST 6:01 PM CST
Moon 2:24 AM CST (12/9) 1:31 PM CST (12/9)
Length of Visible Light 10h 39m
Length of Day
9h 41m
Waning Crescent, 18% of the Moon is Illuminated
Dec 9
Waning Crescent
Dec 13
New
Dec 19
First Quarter
Dec 28
Full
Jan 4
Last Quarter

Hourly Weather History & Observations

Time (CST) Temp. Dew Point Humidity Pressure Visibility Wind Dir Wind Speed Gust Speed Precip Events Conditions
12:53 AM 55.9 °F 53.1 °F 90% 29.96 in 5.0 mi East 3.5 mph - N/A   Overcast
1:53 AM 55.9 °F 54.0 °F 93% 29.94 in 5.0 mi East 4.6 mph - N/A   Overcast
2:20 AM 55.4 °F 53.6 °F 94% 29.95 in 4.0 mi East 4.6 mph - N/A   Overcast
2:53 AM 55.9 °F 54.0 °F 93% 29.94 in 4.0 mi Calm Calm - N/A   Overcast
3:53 AM 55.9 °F 54.0 °F 93% 29.94 in 4.0 mi Calm Calm - N/A   Overcast
4:12 AM 55.4 °F 53.6 °F 94% 29.94 in 4.0 mi Calm Calm - N/A   Overcast
4:50 AM 55.4 °F 53.6 °F 94% 29.93 in 4.0 mi Calm Calm - 0.00 in   Overcast
4:53 AM 55.9 °F 54.0 °F 93% 29.93 in 4.0 mi Calm Calm - 0.00 in   Overcast
5:23 AM 57.2 °F 55.4 °F 94% 29.92 in 3.0 mi Calm Calm - 0.00 in Rain Light Rain
5:43 AM 57.2 °F 55.4 °F 94% 29.91 in 3.0 mi Calm Calm - 0.02 in Rain , Thunderstorm Light Thunderstorms and Rain
5:53 AM 57.9 °F 55.0 °F 90% 29.90 in 3.0 mi ESE 4.6 mph - 0.04 in Rain , Thunderstorm Rain
6:06 AM 59.0 °F 57.2 °F 94% 29.91 in 5.0 mi SSE 4.6 mph - 0.01 in Rain , Thunderstorm Light Thunderstorms and Rain
6:20 AM 60.8 °F 57.2 °F 88% 29.92 in 4.0 mi South 4.6 mph - 0.05 in Rain , Thunderstorm Thunderstorms and Rain
6:36 AM 60.8 °F 57.2 °F 88% 29.94 in 1.8 mi SW 5.8 mph - 0.18 in Rain , Thunderstorm Thunderstorms and Rain
6:39 AM 60.8 °F 57.2 °F 88% 29.95 in 1.2 mi SW 9.2 mph - 0.23 in Rain , Thunderstorm Heavy Thunderstorms and Rain
6:48 AM 60.8 °F 59.0 °F 94% 29.94 in 1.0 mi WSW 4.6 mph - 0.38 in Rain , Thunderstorm Heavy Thunderstorms and Rain
6:53 AM 61.0 °F 59.0 °F 93% 29.93 in 1.2 mi SW 4.6 mph - 0.45 in Rain , Thunderstorm Heavy Rain
7:01 AM 60.8 °F 59.0 °F 94% 29.93 in 1.5 mi South 5.8 mph - 0.06 in Rain Heavy Rain
7:07 AM 60.8 °F 59.0 °F 94% 29.92 in 3.0 mi South 10.4 mph - 0.07 in Rain Light Rain
7:19 AM 60.8 °F 59.0 °F 94% 29.92 in 8.0 mi South 10.4 mph 19.6 mph 0.07 in   Overcast
7:25 AM 62.6 °F 59.0 °F 88% 29.92 in 8.0 mi South 9.2 mph - 0.07 in   Overcast
7:53 AM 62.1 °F 59.0 °F 90% 29.91 in 9.0 mi SSE 8.1 mph - 0.07 in Rain Light Rain
8:53 AM 62.1 °F 59.0 °F 90% 29.92 in 10.0 mi SSW 9.2 mph - 0.03 in Rain Light Rain
9:53 AM 62.1 °F 59.0 °F 90% 29.94 in 9.0 mi SSW 10.4 mph - 0.01 in Rain Light Rain
10:53 AM 63.0 °F 60.1 °F 90% 29.91 in 10.0 mi South 10.4 mph - 0.05 in   Overcast
11:53 AM 63.0 °F 60.1 °F 90% 29.87 in 10.0 mi South 8.1 mph - N/A   Overcast
12:53 PM 64.9 °F 60.1 °F 84% 29.85 in 10.0 mi SSW 9.2 mph - N/A   Overcast
1:25 PM 66.2 °F 60.8 °F 83% 29.85 in 10.0 mi SW 13.8 mph 21.9 mph N/A   Overcast
1:35 PM 66.2 °F 60.8 °F 83% 29.85 in 10.0 mi SW 12.7 mph - N/A   Overcast
1:53 PM 66.9 °F 61.0 °F 81% 29.85 in 10.0 mi SSW 11.5 mph - 0.00 in Rain Light Rain
2:53 PM 64.9 °F 61.0 °F 87% 29.84 in 10.0 mi SSW 11.5 mph - 0.01 in   Overcast
3:53 PM 63.0 °F 57.9 °F 84% 29.84 in 8.0 mi SW 10.4 mph - 0.05 in Rain Light Rain
4:53 PM 61.0 °F 57.9 °F 90% 29.81 in 10.0 mi SSE 4.6 mph - 0.01 in   Mostly Cloudy
5:53 PM 64.0 °F 60.1 °F 87% 29.80 in 10.0 mi South 9.2 mph - N/A   Partly Cloudy
6:53 PM 64.9 °F 57.9 °F 78% 29.79 in 10.0 mi South 13.8 mph - N/A   Scattered Clouds
7:16 PM 64.4 °F 57.2 °F 77% 29.81 in 8.0 mi SSW 15.0 mph - 0.00 in Rain , Thunderstorm Light Rain
7:29 PM 64.4 °F 57.2 °F 77% 29.78 in 2.5 mi South 18.4 mph - 0.10 in Rain Heavy Rain
7:41 PM 64.4 °F 57.2 °F 77% 29.77 in 5.0 mi South 16.1 mph 27.6 mph 0.13 in Rain Light Rain
7:53 PM 64.9 °F 57.0 °F 75% 29.77 in 10.0 mi South 15.0 mph 24.2 mph 0.13 in   Mostly Cloudy
8:53 PM 64.0 °F 55.9 °F 75% 29.77 in 10.0 mi SSW 16.1 mph 23.0 mph N/A   Mostly Cloudy
9:53 PM 64.0 °F 55.9 °F 75% 29.77 in 10.0 mi SSW 9.2 mph - 0.00 in   Overcast
10:20 PM 62.6 °F 57.2 °F 82% 29.76 in 2.5 mi South 15.0 mph 20.7 mph 0.21 in Rain , Thunderstorm Heavy Rain
10:53 PM 64.0 °F 57.0 °F 78% 29.76 in 10.0 mi SW 12.7 mph - 0.26 in Thunderstorm Thunderstorm
11:08 PM 62.6 °F 57.2 °F 82% 29.78 in 6.0 mi West 12.7 mph - 0.03 in Rain , Thunderstorm Rain
11:30 PM 60.8 °F 55.4 °F 82% 29.78 in 4.0 mi West 13.8 mph - 0.13 in Rain Heavy Rain
11:42 PM 60.8 °F 55.4 °F 82% 29.77 in 3.0 mi SW 10.4 mph - 0.19 in Rain Heavy Rain
11:53 PM 60.1 °F 55.9 °F 86% 29.75 in 5.0 mi SW 8.1 mph - 0.22 in Rain Rain